Kuiper-00125

operational
NORAD ID: 65954 Int'l Des: 2025-228 Owner: KUIP Country: US Constellation: kuiper
NOTLE

About Kuiper-00125

Description loading...

Live Position

Loading 3D Globe...

Upcoming Passes

Altitude History

Altitude vs Time

uPlot chart will show altitude changes over time

Two-Line Element Set

1 65954U 25228H 25299.25834581 .00018083 00000-0 54425-3 0 9994
2 65954 51.8801 249.3101 0005724 184.7013 175.3919 15.34407865 3120
Epoch: Oct 26, 2025 • Age: 8 hours

Current Status

Altitude 460.3 km
Velocity 7.64 km/s
Sub-Earth Point 24.48°N, 151.68°E
Launch Date Oct 14, 2025
Age 12 days
Type internet

Technical Details

Classification Payload
Mass 490.00 kg
Dry Mass 490.00 kg
Total Mass 490.00 kg
Length 1.80 m
Diameter 0.70 m
Span 5.00 m
Shape Box + 2 pan
Manufacturer KUIP
Bus Type Kuiper
Phase Status In Orbit
Owner/State KUIP/US

Large Constellations

Loading constellations...